Weather in Zaton

Croatia     42°41′25″N   18°02′11″E
temp.,
°C
wind,
m/s
gust,
m/s
humid.,
%
clouds,
%
prec.,
mm/h
press.,
hPa
HPBL,
m
22 april, thu
thu2223:00+8e23805 0.0 1022198
02:00+8e3479100 0.0 1022178
05:00+8ene3373100 0.0 1021120
08:00+10e3465100 0.0 1021229
11:00+12ese4762100 0.1 1022817
14:00+10se5882100 1.1 1021673
17:00+10e4786100 2.6 1019529
20:00+10e3582100 2.8 1019387
23 april, fri
fri2323:00+10ene3485100 0.5 1019219
02:00+10ne3386100 1.8 1019149
05:00+10nne338398 0.1 101884
08:00+11nne2278100 0.1 1020137
11:00+14e236416 0.0 1020688
14:00+13s3376100 0.0 1020414
17:00+11e1186100 0.1 1020146
20:00+11nne117998 0.2 102062
24 april, sat
sat2423:00+10nne337688 0.0 102059
02:00+9nne4473100 0.0 101979
05:00+8ne447057 0.0 1020122
08:00+10nne446556 0.0 1020159
11:00+14ne344583 0.0 1018650
14:00+16sse24432 0.0 10181273
17:00+15sw12502 0.0 1018632
20:00+12ene11650 0.0 101835
25 april, sun
sun2523:00+11ne22610 0.0 101942
02:00+10nne32590 0.0 101936
05:00+9nne43660 0.0 101960
08:00+11nne33610 0.0 1019128
11:00+15wsw01483 0.0 1020604
14:00+17wsw32480 0.0 1019843
17:00+16w34583 0.0 1019611
20:00+12ne017211 0.0 101911
26 april, mon
mon2623:00+12ne116770 0.0 101910
02:00+12ne226137 0.0 101917
05:00+11ene2259100 0.0 101924
08:00+14e23566 0.0 1019146
11:00+15sse345948 0.0 1019523
14:00+16sse445881 0.0 1018543
17:00+15se4663100 0.0 1017449
20:00+13ese3579100 0.0 1016137